Estación de Coihueco

Ultimos registro cada 15 minutos 26
Estación Fecha / Hora Temperatura Humedad Lluvia Velocidad Dirección Radiación Presion
26 Coihueco 06-05-2026 06:15 12,4 99,5 0,2 3,5 29 0,6 984,5
25 Coihueco 06-05-2026 06:00 12,4 99,3 1 3 28 0,6 984,7
24 Coihueco 06-05-2026 05:45 12,5 98,3 0,2 3 27 0,6 984,6
23 Coihueco 06-05-2026 05:30 12,5 98,1 0,6 3,5 31 0,6 984,4
22 Coihueco 06-05-2026 05:15 12,6 97,2 0 3,5 32 0,6 984,7
21 Coihueco 06-05-2026 05:00 12,5 97,7 0,4 3 32 0,6 984,6
20 Coihueco 06-05-2026 04:45 12,6 97,2 0,4 3 29 0,6 984,8
19 Coihueco 06-05-2026 04:30 12,5 98,7 0,4 2,5 28 0,6 984,9
18 Coihueco 06-05-2026 04:15 12,4 99,4 1,4 2,5 24 0,6 985
17 Coihueco 06-05-2026 04:00 12,4 98 2,2 1,5 11 0,6 985,2
16 Coihueco 06-05-2026 03:45 12,5 96,3 1,4 2 347 0,6 985,3
15 Coihueco 06-05-2026 03:30 12,6 94,9 3 2 0 0,6 984,9
14 Coihueco 06-05-2026 03:15 13,5 88,8 1 1,5 326 0,6 985,2
13 Coihueco 06-05-2026 03:00 15,2 77,2 0 2,5 8 0,6 984,9
12 Coihueco 06-05-2026 02:45 15,2 77 0 3,5 32 0,6 984,4
11 Coihueco 06-05-2026 02:30 15,2 77,3 0 4 34 0,6 984,6
10 Coihueco 06-05-2026 02:15 15,1 77,7 0 3,5 34 0,6 984,5
9 Coihueco 06-05-2026 02:00 15,1 78 0 4 29 0,6 984,7
8 Coihueco 06-05-2026 01:45 15,1 77,7 0 3,5 32 0,6 984,7
7 Coihueco 06-05-2026 01:30 15,1 77,9 0 3,5 37 0,6 984,6
6 Coihueco 06-05-2026 01:15 14,9 79,8 0 3 37 0,6 984,7
5 Coihueco 06-05-2026 01:00 14,6 81,8 0 3 42 0,6 985,1
4 Coihueco 06-05-2026 00:45 14,1 84,4 0 3 42 0,6 985,3
3 Coihueco 06-05-2026 00:30 13,9 85,6 0 3 45 0,6 985,3
2 Coihueco 06-05-2026 00:15 14 85,6 0 3 41 0,6 985,7
1 Coihueco 06-05-2026 00:00 13,9 85,8 0 3 38 0,6 986,2